This is the latest recevied weather packets stored in our database for station/object VE3EP-1. If no packets are shown the sender has not sent any weather packets the latest 10 day(s).
| Time | Temp. | Humidity | Pressure | Rain* | Wind** | Luminosity | Snow |
|---|---|---|---|---|---|---|---|
| 1777530129 | 7.22° C | 95% | 1009.6 hPa | 0.25 mm | - | - | - |
| 1777529528 | 7.22° C | 94% | 1009.7 hPa | 0.25 mm | - | - | - |
| 1777528929 | 7.22° C | 94% | 1009.9 hPa | 0.25 mm | - | - | - |
| 1777528329 | 7.22° C | 93% | 1009.8 hPa | 0 mm | - | - | - |
| 1777527729 | 7.22° C | 94% | 1009.4 hPa | 0 mm | - | - | - |
| 1777527129 | 7.22° C | 94% | 1009.7 hPa | 0 mm | - | - | - |
| 1777526529 | 7.22° C | 94% | 1009.6 hPa | 0 mm | - | - | - |
| 1777525928 | 7.22° C | 94% | 1009.3 hPa | 0 mm | - | - | - |
| 1777525328 | 7.22° C | 93% | 1009.3 hPa | 0 mm | - | - | - |
| 1777524728 | 7.22° C | 94% | 1009.4 hPa | 0.25 mm | - | - | - |
| 1777524128 | 7.78° C | 96% | 1009.6 hPa | 0.51 mm | - | - | - |
| 1777523528 | 7.78° C | 95% | 1009.3 hPa | 0.76 mm | - | - | - |
| 1777522928 | 7.78° C | 95% | 1009.1 hPa | 1.02 mm | - | - | - |
| 1777522328 | 7.78° C | 95% | 1009.1 hPa | 1.02 mm | - | - | - |
| 1777521728 | 7.78° C | 95% | 1009.2 hPa | 1.02 mm | - | - | - |
| 1777521129 | 7.78° C | 96% | 1009.1 hPa | 1.02 mm | - | - | - |
| 1777519929 | 8.33° C | 95% | 1009.1 hPa | 1.02 mm | - | - | - |
| 1777516928 | 8.89° C | 96% | 1009.1 hPa | 3.56 mm | - | - | - |
| 1777515731 | 8.89° C | 96% | 1009.3 hPa | 4.32 mm | - | - | - |
| 1777515129 | 9.44° C | 96% | 1008.9 hPa | 4.32 mm | - | - | - |
| 1777514530 | 9.44° C | 96% | 1009.3 hPa | 4.06 mm | - | - | - |
| 1777513929 | 10° C | 96% | 1009.1 hPa | 3.56 mm | - | - | - |
| 1777513328 | 10° C | 96% | 1009 hPa | 3.05 mm | - | - | - |
| 1777512728 | 10° C | 96% | 1009 hPa | 2.03 mm | - | - | - |
| 1777512128 | 10° C | 96% | 1008.9 hPa | 1.52 mm | - | - | - |
* Rain latest hour (hover to see other rain measurements)
** Current wind speed in m/s (hover to see current wind gust speed)